sat.trackr.live / text

‹ back to catalog

STARLINK-34865

NORAD 65200 · 2025-176C

PAYLOAD ACTIVE UNKNOWN

§ Identity

Operator
Country
US
Launch date
2025-08-14
Launch site
AFETR
Launch vehicle
Mass (kg)
RCS (m²)

Purposes: comms

External: N2YO · Heavens-Above · Gunter

§ Orbital elements

Epoch: 2026-09-20T10:45:19.347840Z

Period
93.85 min
Inclination
53.1607°
Eccentricity
0.0001135
Mean motion
15.34403990 rev/d
Perigee alt
461.9 km
Apogee alt
463.5 km
Semi-major
6,840.8 km
B*
5.5852e-4
RAAN
324.2149°
Arg perigee
81.9845°
Mean anomaly
278.1286°
Rev number
6,299

§ Raw data

STARLINK-348651 65200U 25176C   26263.44814060  .00018543  00000+0  55852-3 0  99982 65200  53.1607 324.2149 0001135  81.9845 278.1286 15.34403990 62995

JSON: /api/v1/satellites/65200 · /tle

For live sub-satellite position, see the globe view (requires WebGL).

§ Visibility from observer

Set your observer location to see the next 7 days of passes ≥ 10°. The values pass through the URL so the page stays shareable.

No JS? Fill the form by hand. The geolocation button needs JavaScript.